Погода в Чернелице

Украина / Ивано-Франковская область     48°48′40″N   25°25′47″E
темп.,
°C
ветер,
м/с
пор.,
м/с
влажн.,
%
обл.,
%
осадки,
мм/ч
давл.,
гПа
погр.,
м
16 мая, вс
вс1600:00+10вюв22895 0.0 101119
03:00+9вюв229119 0.0 101025
06:00+9вюв2392100 0.0 101041
09:00+14юв457681 0.0 1010367
12:00+18юв5665100 0.0 1008727
15:00+17юз6975100 0.9 1008756
18:00+18ююв696948 0.7 10071208
21:00+13юв338535 0.9 100737
17 мая, пн
пн1700:00+13зсз3486100 0.0 100792
03:00+12с3691100 0.1 1008157
06:00+11с229197 0.0 100852
09:00+14сз348198 0.0 1008371
12:00+18ссз33628 0.0 10071108
15:00+21сз115364 0.0 10041636
18:00+20ссв215688 0.0 10031151
21:00+15всв227675 0.1 100211
18 мая, вт
вт1800:00+13ю0090100 1.6 100210
03:00+13ссз2394100 3.4 100065
06:00+12сз5995100 1.9 1001450
09:00+10зсз81491100 2.3 1004713
12:00+10зсз81385100 0.1 10061131
15:00+10зсз91585100 0.4 10071375
18:00+11зсз81481100 0.1 10081194
21:00+10зсз6148444 0.1 1009700
19 мая, ср
ср1900:00+9зсз7158768 0.0 1010622
03:00+9зсз7168213 0.0 1011664
06:00+8зсз615840 0.0 1011567
09:00+12зсз812742 0.0 10121035
12:00+15зсз796351 0.1 10121582
15:00+16сз5658100 0.3 10121649
18:00+16ссз4458100 0.0 10111283
21:00+12ссз2275100 0.3 101216
20 мая, чт
чт2000:00+10зсз2388100 0.3 101356
03:00+10с3689100 0.3 1012151
06:00+9ссв3698100 6.3 1012231
09:00+9ссв5997100 10.5 1012373
12:00+9св5995100 7.1 1012582
15:00+9с61193100 10.8 1012593
18:00+8с81394100 4.6 1012665
21:00+7с71494100 8.0 1013757